Regional Weather Roundup
Issued by NWS Charleston, WV

Home | Current Version | Previous Version | Graphics & Text | Print | Product List | Glossary On
Versions: 1 2 3 4 5 6 7 8 9 10 11 12 13 14 15 16 17 18 19 20 21 22 23 24 25 26 27 28 29 30 31 32 33 34 35 36 37 38 39 40 41 42 43 44 45 46 47 48 49 50
000
ASUS41 KRLX 211310
RWRRLX
West Virginia Regional Weather Roundup
National Weather Service Charleston WV
900 AM EDT THU SEP 21 2017

Note: "fair" indicates few or no clouds below 12,000 feet with no
significant weather and/or obstructions to visibility.

WVZ003-211400-
Northern Panhandle of West Virginia

CITY           SKY/WX    TMP DP  RH WIND       PRES   REMARKS
WHEELING       FOG       64  63  96 CALM      30.13R VSB 1/4
$$

WVZ009-211400-
Northwest West Virginia

CITY           SKY/WX    TMP DP  RH WIND       PRES   REMARKS
PARKERSBURG    PTSUNNY   65  64  97 CALM      30.15R
$$

WVZ006-211400-
Western West Virginia

CITY           SKY/WX    TMP DP  RH WIND       PRES   REMARKS
HUNTINGTON     SUNNY     69  66  90 CALM      30.12R
$$

WVZ015-211400-
West Central West Virginia

CITY           SKY/WX    TMP DP  RH WIND       PRES   REMARKS
CHARLESTON     FOG       64  62  93 CALM      30.13R VSB 1/4
$$

WVZ022-031-211400-
North Central West Virginia

CITY           SKY/WX    TMP DP  RH WIND       PRES   REMARKS
CLARKSBURG     MOSUNNY   64  62  93 CALM      30.13S FOG
MORGANTOWN     SUNNY     66  63  90 CALM      30.14R
$$

WVZ025-035-042-045-211400-
Southern West Virginia

CITY           SKY/WX    TMP DP  RH WIND       PRES   REMARKS
BECKLEY        SUNNY     64  63  96 CALM      30.17S
LOGAN          FOG       64  64 100 CALM      30.15R VSB<1/4
BLUEFIELD      SUNNY     66  61  84 CALM      30.20R
LEWISBURG      FOG       58  58  99 CALM      30.17S VSB<1/4
$$

WVZ047-211400-
Northern Mountains of West Virginia

CITY           SKY/WX    TMP DP  RH WIND       PRES   REMARKS
ELKINS         FOG       61  59  93 CALM      30.18S VSB 3/4
$$

WVZ052-211400-
Eastern Panhandle of West Virginia

CITY           SKY/WX    TMP DP  RH WIND       PRES   REMARKS
MARTINSBURG    SUNNY     65  61  87 CALM      30.10S
PETERSBURG     SUNNY     65  63  94 CALM      30.14R FOG
$$



USA.gov is the U.S. government's official web portal to all federal, state and local government web resources and services.